Location: Bathurst
(33.4193°S, 149.5775°E)
Time: 15:42:22
(UTC+10:00)

N. Korean satellite - Visible Passes

Search period start: 09 May 2021 00:00
Search period end: 19 May 2021 00:00
Orbit: 451 x 500 km, 97.2° (Epoch: 08 May)

Date Brightness Start Highest point End Pass type
(mag) Time Alt. Az. Time Alt. Az. Time Alt. Az.
10 May 8.9 05:21:50 10° NNW 05:22:02 11° NNW 05:22:02 11° NNW visible
10 May 9.8 18:25:22 10° SW 18:27:01 13° WSW 18:28:40 10° W visible
11 May 8.9 04:54:04 10° N 04:54:38 14° N 04:54:38 14° N visible
11 May 8.9 17:56:58 10° SSW 18:00:09 27° WSW 18:03:19 10° NW visible
12 May 9.4 04:27:03 10° NNE 04:27:12 11° NNE 04:27:12 11° NNE visible
14 May 8.9 05:06:12 10° NNW 05:06:34 12° NNW 05:06:34 12° NNW visible
14 May 9.4 18:09:20 10° SSW 18:12:03 19° WSW 18:14:44 10° WNW visible
15 May 9.2 04:38:51 10° NNE 04:39:09 12° NNE 04:39:09 12° NNE visible
15 May 8.0 17:41:33 10° S 17:45:07 43° WSW 17:48:38 10° NNW visible
17 May 9.0 05:18:27 10° NNW 05:18:30 10° NNW 05:18:30 10° NNW visible
17 May 9.7 18:21:58 10° SW 18:23:53 14° WSW 18:25:48 10° W visible
18 May 9.1 04:50:45 10° N 04:51:05 12° N 04:51:05 12° N visible
18 May 8.7 17:53:42 10° SSW 17:57:00 29° WSW 18:00:14 10° NW visible
